GSAT0102 (GALILEO-FM2)

Last updated on Mon Sep 21 2026 00:02:48 GMT+0000 (Coordinated Universal Time)

1 37847U 11060B 26262.74194863 -.00000089 00000+0 00000+0 0 9993 2 37847 56.9563 339.1974 0002362 310.0842 13.8998 1.70476155 92737
UTC large
Height (km)
Speed (km/s)
/
Latitude / Longitude
Inclination (degrees)
Orbital Period (minutes)
Azimuth
Elevation
Range (km)
Doppler Factor

Next 0 passes for location: London (51.5072 / 0.1276)

No passes found over London.
GSAT0102 (GALILEO-FM2)